This is the latest recevied weather packets stored in our database for station/object K6CED. If no packets are shown the sender has not sent any weather packets the latest 10 day(s).
| Time | Temp. | Humidity | Pressure | Rain* | Wind** | Luminosity | Snow |
|---|---|---|---|---|---|---|---|
| 1787793626 | 35.56° C | 40% | 1012.9 hPa | 0 mm | - | 76 W/m² | - |
| 1787793321 | 36.11° C | 38% | 1013 hPa | 0 mm | - | 92 W/m² | - |
| 1787793016 | 36.67° C | 38% | 1013.2 hPa | 0 mm | - | 104 W/m² | - |
| 1787792711 | 36.67° C | 38% | 1013.2 hPa | 0 mm | - | 112 W/m² | - |
| 1787792409 | 36.67° C | 37% | 1013.1 hPa | 0 mm | - | 111 W/m² | - |
| 1787792108 | 36.67° C | 36% | 1013 hPa | 0 mm | - | 132 W/m² | - |
| 1787791806 | 36.67° C | 36% | 1013 hPa | 0 mm | - | 152 W/m² | - |
| 1787791501 | 37.22° C | 35% | 1012.7 hPa | 0 mm | - | 174 W/m² | - |
| 1787791196 | 36.67° C | 35% | 1012.9 hPa | 0 mm | - | 201 W/m² | - |
| 1787790892 | 37.22° C | 35% | 1012.8 hPa | 0 mm | - | 222 W/m² | - |
| 1787790587 | 37.78° C | 34% | 1012.9 hPa | 0 mm | - | 159 W/m² | - |
| 1787790282 | 37.22° C | 34% | 1012.8 hPa | 0 mm | - | 225 W/m² | - |
| 1787789978 | 37.22° C | 33% | 1012.9 hPa | 0 mm | - | 280 W/m² | - |
| 1787789677 | 37.22° C | 34% | 1012.8 hPa | 0 mm | - | 284 W/m² | - |
| 1787789373 | 37.78° C | 33% | 1012.9 hPa | 0 mm | - | 288 W/m² | - |
| 1787789072 | 37.22° C | 34% | 1012.9 hPa | 0 mm | - | 310 W/m² | - |
| 1787788765 | 37.22° C | 34% | 1012.8 hPa | 0 mm | - | 320 W/m² | - |
| 1787788459 | 37.78° C | 34% | 1012.9 hPa | 0 mm | - | 374 W/m² | - |
| 1787788154 | 37.78° C | 34% | 1012.9 hPa | 0 mm | - | 382 W/m² | - |
| 1787787849 | 37.78° C | 33% | 1012.8 hPa | 0 mm | - | 373 W/m² | - |
| 1787787548 | 37.78° C | 33% | 1012.7 hPa | 0 mm | - | 375 W/m² | - |
| 1787787243 | 37.78° C | 34% | 1012.8 hPa | 0 mm | - | 393 W/m² | - |
| 1787786942 | 37.22° C | 35% | 1013 hPa | 0 mm | - | 404 W/m² | - |
| 1787786638 | 36.67° C | 35% | 1013.1 hPa | 0 mm | - | 398 W/m² | - |
| 1787786337 | 36.67° C | 36% | 1013.2 hPa | 0 mm | - | 228 W/m² | - |
* Rain latest hour (hover to see other rain measurements)
** Current wind speed in m/s (hover to see current wind gust speed)